Location: Ago
(8.4667°N, 4.4833°E)
Time: 23:47:04
(UTC+00:00)

CZ-2D R/B - Pass Details

Date: 18 September 2020
Orbit: 520 x 539 km, 97.4° (Epoch: 20 October)

Event Time Altitude Azimuth Distance (km) Brightness Sun altitude
Rises 18:05:21 0° 154° (SSE) 2,676 6.5 -7.0°
Reaches altitude 10° 18:07:34 10° 146° (SE) 1,787 5.6 -7.6°
Maximum altitude 18:11:08 37° 78° (ENE) 848 3.8 -8.5°
Drops below altitude 10° 18:14:43 10° 10° (N) 1,790 5.9 -9.4°
Sets 18:16:56 0° 2° (N) 2,680 6.9 -9.9°
